User: anonymous
Location: Montr�al
(45.5000°N, 73.5830°W)
Time: 00:32:22
(UTC-04:00)
Language:

Cosmos 1151 Rocket - Orbit

View from above orbital plane
View from above orbital plane
View from above satellite
View from above satellite

Ground track
Ground track

The orbit data is extracted from the following two-line orbital elements,

1 11672U 80005B   14109.88535686  .00001083  00000-0  11766-3 0  9833
2 11672 082.5148 088.4000 0017267 182.2250 239.9023 14.87116458851793
Epoch (UTC): 19 April 2014 21:14:54
Eccentricity: 0.0017267
inclination: 82.5148°
perigee height: 595 km
apogee height: 619 km
right ascension of ascending node: 88.4000°
argument of perigee: 182.2250°
revolutions per day: 14.87116458
mean anomaly at epoch: 239.9023°
orbit number at epoch: 85179

The dashed part of the orbit path shows where the satellite is in the earth's shadow,  

DLR